Hourly Data Report for January 16, 2004

TORONTO CITY
ONTARIO

43°40'00.000" N
79°24'00.000" W
112.50 m
6158355
71508
XTO

Download Data

Hourly Data (January 2004)
Hourly Data Report for January 16, 2004
TIME
LST
Temp Definition
°C
Dew Point Definition
°C
Rel Hum Definition
%
Precip. Amount Definition
mm

Wind Dir Definition
10's deg

Wind Spd Definition
km/h
Visibility Definition
km
Stn Press Definition
kPa
Hmdx Definition


Wind Chill Definition


Weather Definition


00:00 -21.0 -25.2 69   LegendMM LegendMM LegendMM 101.02     LegendNANA
01:00 -20.9 -24.9 70   LegendMM LegendMM LegendMM 100.96     LegendNANA
02:00 -20.6 -24.1 73   LegendMM LegendMM LegendMM 100.96     LegendNANA
03:00 -20.4 -23.7 75   LegendMM LegendMM LegendMM 100.95     LegendNANA
04:00 -19.9 -23.1 76   LegendMM LegendMM LegendMM 100.94     LegendNANA
05:00 -19.2 -22.2 77   LegendMM LegendMM LegendMM 100.92     LegendNANA
06:00 -18.0 -20.8 79   LegendMM LegendMM LegendMM 100.88     LegendNANA
07:00 -17.3 -20.1 79   LegendMM LegendMM LegendMM 100.93     LegendNANA
08:00 -16.2 -18.6 82   LegendMM LegendMM LegendMM 100.96     LegendNANA
09:00 -13.9 -17.6 74   LegendMM LegendMM LegendMM 100.97     LegendNANA
10:00 -13.1 -17.2 71   LegendMM LegendMM LegendMM 100.99     LegendNANA
11:00 -11.5 -17.0 64   LegendMM LegendMM LegendMM 101.01     LegendNANA
12:00 -10.8 -16.2 64   LegendMM LegendMM LegendMM 100.98     LegendNANA
13:00 -9.9 -15.2 65   LegendMM LegendMM LegendMM 100.86     LegendNANA
14:00 -9.0 -15.5 59   LegendMM LegendMM LegendMM 100.85     LegendNANA
15:00 -9.4 -15.0 64   LegendMM LegendMM LegendMM 100.86     LegendNANA
16:00 -9.2 -14.7 64   LegendMM LegendMM LegendMM 100.93     LegendNANA
17:00 -9.4 -14.4 67   LegendMM LegendMM LegendMM 100.95     LegendNANA
18:00 -10.1 -15.1 67   LegendMM LegendMM LegendMM 100.98     LegendNANA
19:00 -10.7 -15.0 71   LegendMM LegendMM LegendMM 101.02     LegendNANA
20:00 -11.0 -14.9 73   LegendMM LegendMM LegendMM 101.02     LegendNANA
21:00 -11.4 -14.9 75   LegendMM LegendMM LegendMM 101.07     LegendNANA
22:00 -11.6 -14.9 76   LegendMM LegendMM LegendMM 101.08     LegendNANA
23:00 -11.4 -14.4 78   LegendMM LegendMM LegendMM 101.11     LegendNANA

Notes on Data Quality.

Legend

  • E = Estimated
  • M = Missing
  • NA = Not Available*
  • [empty] = Indicates an unobserved value
Date modified: